Regional Weather Roundup
Issued by NWS

Home | Current Version | Previous Version | Graphics & Text | Print | Product List | Glossary On
Versions: 1 2 3 4 5 6 7 8 9 10 11 12 13 14 15 16 17 18 19 20 21 22 23 24 25 26 27 28 29 30 31 32 33 34 35 36 37 38 39 40 41 42 43 44 45 46 47 48 49 50
000
ASUS43 KOAX 192110
RWRNE

WEATHER ROUNDUP FOR NEBRASKA
NATIONAL WEATHER SERVICE OMAHA NE
300 PM CST FRI JAN 19 2018

NOTES: SATELLITE DATA IS BEING USED TO AUGMENT CLOUD COVER ABOVE
       12000 FEET.
       "FAIR" INDICATES FEW OR NO CLOUDS BELOW 12,000 FEET WITH NO
       SIGNIFICANT WEATHER AND/OR OBSTRUCTIONS TO VISIBILITY.


NEZ001>004-019>022-054>056-192200-
NEBRASKA PANHANDLE

CITY           SKY/WX    TMP DP  RH WIND       PRES   REMARKS
SCOTTSBLUFF    CLOUDY    38  32  79 NE6       29.65F WCI  33
ALLIANCE       CLOUDY    44  32  62 N9        29.66S
CHADRON        CLOUDY    44  32  62 E5        29.68S
GORDON         FAIR      44  32  63 N5        29.67S
KIMBALL        CLOUDY    57  25  29 NW9       29.68F
SIDNEY         CLOUDY    51  27  39 W5        29.68S
$$

NEZ057>060-069>072-079>082-192200-
SOUTHWEST NEBRASKA

CITY           SKY/WX    TMP DP  RH WIND       PRES   REMARKS
NORTH PLATTE   CLOUDY    51  32  48 W5        29.63F
IMPERIAL       CLOUDY    62  27  26 N9        29.64F
LEXINGTON      CLOUDY    50  33  51 CALM      29.63S
MCCOOK         CLOUDY    56  26  31 CALM      29.64S
OGALLALA       CLOUDY    49  34  56 W7        29.66S
$$

NEZ005>010-023>029-035>040-094-192200-
NORTH CENTRAL NEBRASKA

CITY           SKY/WX    TMP DP  RH WIND       PRES   REMARKS
VALENTINE      CLOUDY    48  33  56 N12       29.65R
AINSWORTH      CLOUDY    48  36  61 N13       29.64R
BROKEN BOW     CLOUDY    54  36  50 CALM      29.60F
O`NEILL        CLOUDY    51  38  59 NW12      29.62R
ORD            CLOUDY    63  30  28 CALM      29.60R
THEDFORD       CLOUDY    54  35  48 NW3       29.63R
$$

NEZ041-046>049-061>064-073>077-083>087-192200-
SOUTH CENTRAL NEBRASKA

CITY           SKY/WX    TMP DP  RH WIND       PRES   REMARKS
GRAND ISLAND   CLOUDY    51  32  48 S7        29.64S
AURORA         CLOUDY    52  31  43 S9        29.64S
HASTINGS       CLOUDY    54  28  36 S8        29.64F
HEBRON         CLOUDY    49  31  48 S12       29.68S
HOLDREGE       CLOUDY    53  29  39 S6        29.63S
YORK           CLOUDY    50  32  50 SW13      29.64F
$$

NEZ011>018-030>034-042>045-192200-
NORTHEAST NEBRASKA

CITY           SKY/WX    TMP DP  RH WIND       PRES   REMARKS
NORFOLK        CLOUDY    53  34  48 S5        29.58R
ALBION         CLOUDY    55  36  47 S6        29.60S
BLAIR          CLOUDY    51  30  45 S15       29.64R
COLUMBUS       CLOUDY    52  28  39 SW8       29.62F
FREMONT        CLOUDY    54  27  35 S9        29.63F
TEKAMAH        CLOUDY    52  29  41 S16       29.61F
WAYNE          CLOUDY    57  33  39 SW5       29.58R
$$

NEZ050>053-065>068-078-088>093-192200-
SOUTHEAST NEBRASKA

CITY           SKY/WX    TMP DP  RH WIND       PRES   REMARKS
LINCOLN        CLOUDY    52  29  41 S12       29.67S
OMAHA EPPLEY   CLOUDY    45  30  55 S14       29.66R
BEATRICE       CLOUDY    44  31  60 S16       29.69F
FALLS CITY     CLOUDY    49  27  42 S10G23    29.71F
NEBRASKA CITY  CLOUDY    44  32  62 SW17      29.69S
PLATTSMOUTH    MOSUNNY   41  31  65 S14       29.67S
$$

NEZ044-045-051>053-067-192200-
OMAHA AREA

CITY           SKY/WX    TMP DP  RH WIND       PRES   REMARKS
OMAHA EPPLEY   CLOUDY    45  30  55 S14       29.66R
BLAIR          CLOUDY    51  30  45 S15       29.64R
FREMONT        CLOUDY    54  27  35 S9        29.63F
MILLARD        CLOUDY    48  32  53 SE7       29.66R
OFFUTT AFB     CLOUDY    43  30  61 S9        29.67S
PLATTSMOUTH    MOSUNNY   41  31  65 S14       29.67S
WAHOO          FAIR      53  25  33 SW7       29.65R
$$



USA.gov is the U.S. government's official web portal to all federal, state and local government web resources and services.